EW8359 Weather Reports


time (UTC)temp
C
wind
direction
speed
KPH
gust
KPH
rain 1hr
cm
rain 24hr
cm
rain mn
cm
humidity
%
barometer
mb
20260831171527 24 294 1.6 6.4 0.00 0.03 0.00 36 1017.1
20260831170025 23 240 0.0 8.0 0.00 0.03 0.00 37 1017.4
20260831164524 23 300 0.0 8.0 0.00 0.03 0.00 40 1017.4
20260831163024 23 59 3.2 8.0 0.00 0.03 0.00 38 1017.7
20260831161522 23 132 1.6 12.9 0.00 0.03 0.00 42 1017.9
20260831160027 23 127 1.6 6.4 0.00 0.03 0.00 42 1018.0
20260831154519 22 109 0.0 6.4 0.00 0.03 0.00 48 1018.0
20260831153015 22 348 3.2 8.0 0.00 0.03 0.00 45 1018.1
20260831151513 21 79 1.6 16.1 0.00 0.03 0.00 49 1018.2
20260831150015 21 96 1.6 14.5 0.00 0.03 0.00 51 1018.3
20260831144517 21 9 3.2 11.3 0.00 0.03 0.00 52 1018.5
20260831143007 20 5 3.2 8.0 0.00 0.03 0.00 51 1018.7
20260831141503 20 50 3.2 11.3 0.00 0.03 0.00 53 1018.8
20260831140108 19 19 1.6 9.7 0.00 0.03 0.00 59 1018.7
20260831134600 18 43 4.8 14.5 0.00 0.03 0.00 60 1018.7
20260831133055 18 52 4.8 8.0 0.00 0.03 0.00 64 1018.5
20260831131552 18 28 3.2 6.4 0.00 0.03 0.00 68 1018.4
20260831130053 17 63 1.6 8.0 0.00 0.03 0.00 68 1018.4
20260831124551 18 44 1.6 4.8 0.00 0.03 0.00 70 1018.3
20260831123048 17 339 1.6 4.8 0.00 0.03 0.00 71 1018.3
20260831121544 16 296 0.0 3.2 0.00 0.03 0.00 83 1018.2
20260831120041 13 297 0.0 3.2 0.00 0.03 0.00 89 1018.1
20260831114541 12 287 0.0 1.6 0.00 0.03 0.00 90 1018.1
20260831113040 11 287 0.0 1.6 0.00 0.03 0.00 90 1018.1
20260831111602 11 287 0.0 1.6 0.00 0.03 0.00 89 1018.1
20260831110050 11 287 0.0 1.6 0.00 0.03 0.00 89 1017.9
20260831104535 11 287 0.0 1.6 0.00 0.03 0.00 88 1017.8
20260831103033 10 287 0.0 1.6 0.00 0.03 0.00 88 1017.6
20260831101531 11 287 0.0 0.0 0.00 0.03 0.00 88 1017.5
20260831100028 11 287 0.0 1.6 0.00 0.03 0.00 87 1017.5
20260831094529 11 287 0.0 1.6 0.00 0.03 0.00 87 1017.2
20260831093024 12 287 0.0 3.2 0.00 0.03 0.00 87 1017.1
20260831091521 12 287 0.0 1.6 0.00 0.03 0.00 87 1017.0
20260831090020 12 287 0.0 1.6 0.00 0.03 0.00 87 1016.9
20260831084532 12 288 0.0 3.2 0.00 0.03 0.00 87 1016.6
20260831083016 12 284 0.0 3.2 0.00 0.03 0.00 87 1016.6
20260831081521 12 285 0.0 1.6 0.00 0.03 0.00 87 1016.5
20260831080011 12 285 0.0 0.0 0.00 0.03 0.00 86 1016.5
20260831074529 13 285 0.0 1.6 0.00 0.03 0.00 86 1016.3
20260831073011 13 285 0.0 4.8 0.00 0.03 0.00 86 1016.3
20260831071505 13 254 0.0 3.2 0.00 0.03 0.00 87 1016.3
20260831070004 13 259 0.0 3.2 0.00 0.03 0.00 87 1016.1
20260831064507 13 300 0.0 4.8 0.00 0.03 0.00 87 1016.0
20260831063001 13 319 0.0 3.2 0.00 0.03 0.00 87 1015.8
20260831061600 13 49 0.0 3.2 0.00 0.03 0.00 87 1015.7
20260831060112 13 22 0.0 3.2 0.00 0.03 0.00 87 1015.6
20260831054556 13 41 0.0 3.2 0.00 0.03 0.00 87 1015.5
20260831053053 13 41 0.0 3.2 0.00 0.03 0.00 87 1015.5
20260831051552 13 41 0.0 3.2 0.00 0.03 0.00 87 1015.4
20260831050103 13 41 0.0 1.6 0.00 0.03 0.00 86 1015.1
20260831044547 14 41 0.0 1.6 0.00 0.03 0.00 86 1015.2
20260831043049 14 41 0.0 1.6 0.00 0.03 0.00 84 1015.1
20260831041547 15 41 0.0 1.6 0.00 0.03 0.00 83 1015.2
20260831040048 15 41 0.0 3.2 0.00 0.03 0.00 80 1015.2
20260831034540 16 41 0.0 1.6 0.00 0.03 0.03 77 1015.1
20260831033036 17 41 0.0 6.4 0.00 0.03 0.03 74 1015.1
20260831031536 17 319 0.0 6.4 0.00 0.03 0.03 72 1015.0
20260831030045 18 355 1.6 12.9 0.00 0.03 0.03 72 1015.3
20260831024536 18 5 6.4 16.1 0.00 0.03 0.03 72 1015.4
20260831023035 18 40 4.8 25.7 0.03 0.03 0.03 81 1015.4
20260831021535 18 5 1.6 14.5 0.03 0.03 0.03 85 1014.7
20260831020034 18 202 1.6 6.4 0.03 0.03 0.03 84 1014.3
20260831014536 19 175 3.2 8.0 0.03 0.03 0.03 83 1014.3
20260831013033 19 184 6.4 20.9 0.00 0.00 0.00 81 1014.1
20260831011538 19 218 0.0 3.2 0.00 0.00 0.00 81 1013.8
20260831010032 19 218 0.0 1.6 0.00 0.00 0.00 81 1013.6
20260831004531 19 218 0.0 3.2 0.00 0.00 0.00 80 1013.3
20260831003030 19 218 0.0 1.6 0.00 0.00 0.00 79 1013.2
20260831001530 19 218 0.0 1.6 0.00 0.00 0.00 79 1013.2
20260831000024 20 219 0.0 3.2 0.00 0.00 0.00 79 1013.0
20260830234523 20 219 0.0 1.6 0.00 0.00 0.00 79 1012.9
20260830233032 20 219 0.0 1.6 0.00 0.00 0.00 78 1012.7
20260830231523 20 219 0.0 3.2 0.00 0.00 0.00 76 1012.8
20260830230025 20 219 0.0 1.6 0.00 0.00 0.00 75 1012.8
20260830224520 21 219 0.0 1.6 0.00 0.00 0.00 74 1012.8
20260830223017 21 219 0.0 4.8 0.00 0.00 0.00 71 1013.0
20260830221517 21 304 0.0 1.6 0.00 0.00 0.00 70 1013.2
20260830220028 22 304 0.0 6.4 0.00 0.00 0.00 66 1013.0
20260830214518 22 178 1.6 4.8 0.00 0.00 0.00 64 1013.1
20260830213019 22 207 3.2 6.4 0.00 0.00 0.00 60 1013.2
20260830211513 23 217 0.0 9.7 0.00 0.00 0.00 61 1013.2
20260830210020 23 175 3.2 11.3 0.00 0.00 0.00 62 1013.4
20260830204512 23 255 1.6 8.0 0.00 0.00 0.00 60 1013.5
20260830203009 22 201 1.6 6.4 0.00 0.00 0.00 67 1013.6
20260830201509 22 223 1.6 6.4 0.00 0.00 0.00 67 1013.6
20260830200008 21 171 3.2 8.0 0.00 0.00 0.00 69 1013.6
20260830194507 22 217 0.0 8.0 0.00 0.00 0.00 69 1013.8
20260830193003 21 218 0.0 6.4 0.00 0.00 0.00 71 1014.0
20260830191507 21 234 1.6 4.8 0.00 0.00 0.00 74 1014.2
20260830190111 21 230 1.6 6.4 0.00 0.00 0.00 77 1014.3
20260830184559 21 229 1.6 4.8 0.00 0.00 0.00 79 1014.5
20260830183056 20 181 1.6 6.4 0.00 0.00 0.00 82 1014.8
20260830181656 20 251 0.0 6.4 0.00 0.00 0.00 80 1015.0
20260830180056 20 137 0.0 4.8 0.00 0.00 0.00 84 1015.2
20260830174557 20 264 1.6 9.7 0.00 0.00 0.00 82 1015.4
20260830173053 20 181 0.0 4.8 0.00 0.00 0.00 82 1015.4